User: anonymous   Login
Location: Darlington Observatory
(36.4817°N, 105.8156°W)
Time: 02:57:12
(UTC-06:00)
Language:

MOS 1 - Orbit

View from above orbital plane
View from above orbital plane
View from above satellite
View from above satellite

Ground track
Ground track

The orbit data is extracted from the following two-line orbital elements,

1 17527U 87018A   17292.15303448 -.00000182 +00000-0 -87893-4 0  9997
2 17527 099.2629 308.5078 0007919 315.3598 085.7638 14.02486398566629
Epoch (UTC): 19 October 2017 03:40:22
Eccentricity: 0.0007919
inclination: 99.2629°
perigee height: 879 km
apogee height: 891 km
right ascension of ascending node: 308.5078°
argument of perigee: 315.3598°
revolutions per day: 14.02486398
mean anomaly at epoch: 85.7638°
orbit number at epoch: 56662

The dashed part of the orbit path shows where the satellite is in the earth's shadow,  

DLR